This demonstration page uses our WeatherBlox Daily Observations layout. Learn more.

Left ArrowRight Arrow

53.62937, 11.41316

Hourly Observations for April 3, 2016

Temp ( °F °C ) Dew Point ( °F °C ) Humidity (%) Winds ( mph kmh ) Pressure ( in mb ) Visibility ( mi km ) Precip ( " mm )
6:20 am 06:20 Mostly Clear 45 7 34 1 66 66 E 8 13 29.94 1014 7 11 N/A
6:50 am 06:50 Mostly Sunny 45 7 34 1 66 66 E 8 13 29.94 1014 7 11 N/A
7:20 am 07:20 Mostly Sunny 45 7 34 1 66 66 E 8 13 29.94 1014 7 11 N/A
7:50 am 07:50 Mostly Sunny 45 7 36 2 71 71 ENE 7 11 29.94 1014 7 11 N/A
8:20 am 08:20 Mostly Sunny 46 8 36 2 66 66 E 8 13 29.94 1014 7 11 N/A
8:50 am 08:50 Mostly Sunny 48 9 36 2 62 62 E 8 13 29.94 1014 7 11 N/A
9:20 am 09:20 Mostly Sunny 50 10 37 3 62 62 E 7 11 29.94 1014 7 11 N/A
9:50 am 09:50 Mostly Sunny 52 11 37 3 58 58 E 6 9 29.91 1013 7 11 N/A
10:20 am 10:20 Mostly Sunny 54 12 37 3 54 54 E 8 13 29.91 1013 7 11 N/A
10:50 am 10:50 Mostly Sunny 57 14 41 5 55 55 E 8 13 29.91 1013 7 11 N/A
11:20 am 11:20 Mostly Sunny 57 14 39 4 51 51 ESE 8 13 29.91 1013 7 11 N/A
11:50 am 11:50 Mostly Sunny 61 16 41 5 48 48 E 9 15 29.88 1012 7 11 N/A
12:20 pm 12:20 Mostly Sunny 63 17 41 5 45 45 ESE 6 9 29.88 1012 7 11 N/A
12:50 pm 12:50 Mostly Sunny 63 17 43 6 49 49 SSE 9 15 29.88 1012 7 11 N/A
1:03 pm 13:03 Mostly Sunny 63 17 43 6 49 49 E 12 19 29.85 1011 7 11 N/A
1:20 pm 13:20 Mostly Sunny 64 18 43 6 46 46 E 9 15 29.85 1011 7 11 N/A
1:50 pm 13:50 Mostly Sunny 64 18 43 6 46 46 ESE 9 15 29.85 1011 7 11 N/A
2:20 pm 14:20 Mostly Sunny 64 18 43 6 46 46 S 10 17 29.85 1011 7 11 N/A
2:50 pm 14:50 Mostly Sunny 64 18 45 7 49 49 SSW 14 22 29.88 1012 7 11 N/A
3:20 pm 15:20 Mostly Sunny 64 18 46 8 52 52 S 10 17 29.85 1011 7 11 N/A
3:50 pm 15:50 Mostly Sunny 64 18 43 6 46 46 S 9 15 29.85 1011 7 11 N/A
4:20 pm 16:20 Mostly Sunny 64 18 43 6 46 46 S 8 13 29.85 1011 7 11 N/A
4:50 pm 16:50 Mostly Sunny 64 18 43 6 46 46 S 9 15 29.85 1011 7 11 N/A
5:20 pm 17:20 Mostly Sunny 64 18 45 7 49 49 SSE 8 13 29.85 1011 7 11 N/A
5:50 pm 17:50 Mostly Sunny 64 18 45 7 49 49 SSE 6 9 29.83 1010 7 11 N/A
6:20 pm 18:20 Mostly Sunny 64 18 45 7 49 49 S 5 7 29.83 1010 7 11 N/A
6:50 pm 18:50 Mostly Sunny 63 17 45 7 52 52 S 3 6 29.83 1010 7 11 N/A

Powered by AerisWeather